Location: Dumbr?vi?a
(45.8833°N, 22.7000°E)
Time: 08:07:52
(UTC+00:00)

USA 307 - Pass Details

Date: 03 March 2021
Orbit: 567 x 577 km, 54.0° (Epoch: 10 April)

Event Time Altitude Azimuth Distance (km) Brightness Sun altitude
Rises 16:37:57 0° 268° (W) 2,785 9.5 -4.2°
Reaches altitude 10° 16:40:23 10° 278° (W) 1,887 7.3 -4.6°
Maximum altitude 16:44:19 34° 344° (NNW) 954 4.2 -5.3°
Drops below altitude 10° 16:48:15 10° 51° (NE) 1,884 5.1 -5.9°
Enters shadow 16:49:37 - 57° (ENE) 2,382 5.5 -6.2°
